CZ-4B DEB, 56086

Orbit data source: Space-Track

CZ-4B DEB, 56086 is space debris in SSO originally from a launch on Wed, 24 Oct 2018 UTC launched from the Taiyaun Space Center, China (TSC). Debris objects in space refer to the collection of defunct objects orbiting the Earth. Examples of debris include non-operational satellites, rocket bodies, and fragments generated from explosions, collisions, or faulty payload assembly.

Loading next visibility...
CZ-4B DEB details
Identifier
56086, 2018-081G
Orbit
SSO
Last TLE update9 hours ago
Origin
Flag of CNCNSA (CN / PRC)
ManufacturerUnknown
MissionSpacecraft
Bus & MotorUnknown
MassUnknown
Launch date (UTC)
2018-10-24 (6 years ago)
Launch vehicleUnknown
Launch site
Taiyaun Space Center, China (TSC)
Object type
Payload
Rocket body
Debris
Shape & HBRUnknown
Radar Cross SectionSmall (<0.1 m²)

Expand to show TLE details & history

TLE from 9 hours ago
0 CZ-4B DEB
1 56086U 18081G   24361.19596158  .01167062  00000-0  41615-1 0  9994
2 56086  99.4062 243.3922 0031160 344.6301  15.3981 15.25827523 32725
Epoch: 2024-12-26T04:42Z
Definitive object data (Epoch: 2024-12-26T04:42:11.08Z)
Latitude-0.00007°
Longitude77.66721°
Altitude470.707 km
Speed7.642 km/s
True Right ascension16h 13m 34s
True Declination0° 00' 00"
Sunlit
Object was in daylight at TLE epoch
Visualization TLE readout
Latitude-29.65795°
Longitude-107.25569°
Altitude511.573 km
Speed7.599 km/s
Apparent Right ascension02h 32m 07s
Apparent Declination-36° 36' 28"
Sunlit
Object is in full shadow
Visualization observer readout
Local Sidereal Time12:50:59
Azimuth271.398° WNW
Elevation-69.944°
Doppler factor1
Orbital elements
Apogee altitude506.743 km
Perigee altitude463.97 km
Semi-major axis6,863.494 km
Eccentricity0.003116
Inclination99.4062°
RAAN243.3922°
Arg. of periapsis344.6301°
True anomaly15.49327°
Mean anomaly15.3981°
Eccentric anomaly15.44565°
Mean motion3.81703 °/min
BSTAR0.041615
Orbital period94.31 mins
Loading maneuver chart data...
Loading historical data...
Loading historical data...
Loading historical data...
Loading historical data...
Loading historical data...
Loading historical data...
Loading historical data...

CZ-4B DEB Visibility forecast

Observer location: undefined°, undefined

Span
Click to sort rows by Start time (UTC) header in descending order
Start Az.
Max El. time (UTC)
Max El. Az.
Max El.
End time (UTC)
End Az.
5 mins2024-12-26 15:51:18.730Z133.452° SE2024-12-26 15:54:18.730Z55.85° ENE29.647°2024-12-26 15:56:18.730Z10.324° NNE
5 mins2024-12-27 04:52:18.730Z45.213° ENE2024-12-27 04:54:18.730Z93.424° ESE28.351°2024-12-27 04:57:18.730Z161.769° S
|